Location: Lichtensteig
(47.3376°N, 9.0841°E)
Time: 10:27:32
(UTC+00:00)

FENGYUN 1C DEB - Pass Details

Date: 20 September 2021
Orbit: 837 x 877 km, 98.7° (Epoch: 26 October)

Event Time Altitude Azimuth Distance (km) Brightness Sun altitude
Rises 18:56:08 0° 200° (SSW) 3,447 ? -15.9°
Reaches altitude 10° 18:58:57 10° 214° (SW) 2,519 ? -16.4°
Maximum altitude 19:03:28 25° 268° (W) 1,709 ? -17.1°
Drops below altitude 10° 19:08:02 10° 322° (NW) 2,542 ? -17.8°
Sets 19:10:54 0° 336° (NNW) 3,485 ? -18.3°
